Forks, WA

7:56 PM PST on February 19, 2017 (GMT -0800)
Quillayute

Weather History for KUIL - March, 2013

Change the Weather History Date:

Friday, March 15, 2013

  Actual Average Record
Temperature  
Mean Temperature 50 °F 44 °F  
Max Temperature 52 °F 51 °F 62 °F (1988)
Min Temperature 47 °F 37 °F 24 °F (1985)
Degree Days  
Heating Degree Days 15 21  
Month to date heating degree days 301 323  
Since 1 July heating degree days 3994 4168  
Cooling Degree Days 0 0  
Month to date cooling degree days 0 0  
Year to date cooling degree days 0 0  
Moisture  
Dew Point 46 °F    
Average Humidity 88    
Maximum Humidity 93    
Minimum Humidity 83    
Precipitation  
Precipitation 0.35 in 0.36 in 4.00 in (1974)
Month to date precipitation 13.36 5.40  
Year to date precipitation 35.47 30.36  
Sea Level Pressure  
Sea Level Pressure 30.17 in    
Wind  
Wind Speed 6 mph (SSW)    
Max Wind Speed 14 mph    
Max Gust Speed 20 mph    
Visibility 1 miles    
Events Fog , Rain    
T = Trace of Precipitation, MM = Missing Value Source: NWS Daily Summary

Daily Weather History Graph

Daily Weather History Graph

Search for Another Location

Airport or City:

Trip Planner

Search our weather history database for the weather conditions in past years. The results will help you decide how hot, cold, wet, or windy it might be!

Date:

Astronomy

Mar. 15, 2013 Rise Set
Actual Time 7:30 AM PDT 7:24 PM PDT
Civil Twilight 6:59 AM PDT 7:55 PM PDT
Nautical Twilight 6:23 AM PDT 8:31 PM PDT
Astronomical Twilight 5:46 AM PDT 9:08 PM PDT
Moon 9:04 AM PDT (3/15) No Moon Set
Length of Visible Light 12h 55m
Length of Day
11h 53m
Waxing Crescent, 16% of the Moon is Illuminated
Mar 15
Waxing Crescent
Mar 19
First Quarter
Mar 27
Full
Apr 2
Last Quarter
Apr 10
New

Hourly Weather History & Observations

Time (PDT) Temp. Windchill Dew Point Humidity Pressure Visibility Wind Dir Wind Speed Gust Speed Precip Events Conditions
12:46 AM 48.2 °F - 46.4 °F 93% 30.14 in 1.0 mi South 5.8 mph - N/A   Mist
12:53 AM 48.9 °F - 46.0 °F 90% 30.14 in 1.0 mi SSW 5.8 mph - 0.01 in   Mist
1:03 AM 48.2 °F - 46.4 °F 93% 30.14 in 0.8 mi SSW 6.9 mph - N/A   Mist
1:53 AM 48.0 °F - 46.0 °F 93% 30.15 in 0.8 mi South 3.5 mph - N/A   Mist
2:01 AM 48.2 °F - 46.4 °F 93% 30.15 in 1.0 mi SSW 5.8 mph - N/A   Mist
2:25 AM 48.2 °F - 44.6 °F 87% 30.15 in 1.0 mi South 5.8 mph - N/A   Mist
2:34 AM 48.2 °F - 44.6 °F 87% 30.16 in 1.0 mi SSW 4.6 mph - N/A   Mist
2:53 AM 48.0 °F - 45.0 °F 89% 30.16 in 0.8 mi South 3.5 mph - N/A   Mist
3:18 AM 48.2 °F - 44.6 °F 87% 30.16 in 1.0 mi South 4.6 mph - 0.01 in   Mist
3:29 AM 48.2 °F - 44.6 °F 87% 30.16 in 1.0 mi South 5.8 mph - 0.01 in   Mist
3:53 AM 48.0 °F - 45.0 °F 89% 30.16 in 1.0 mi South 3.5 mph - 0.01 in   Mist
3:59 AM 48.2 °F - 44.6 °F 87% 30.16 in 0.8 mi SSW 4.6 mph - N/A   Mist
4:17 AM 48.2 °F - 44.6 °F 87% 30.15 in 1.0 mi South 5.8 mph - N/A   Mist
4:29 AM 46.4 °F 42.9 °F 44.6 °F 93% 30.15 in 0.8 mi South 6.9 mph - N/A   Mist
4:53 AM 46.9 °F - 45.0 °F 93% 30.16 in 0.8 mi South 6.9 mph - N/A   Mist
5:53 AM 48.0 °F - 45.0 °F 89% 30.16 in 0.8 mi South 3.5 mph - N/A   Mist
6:07 AM 48.2 °F - 44.6 °F 87% 30.16 in 1.0 mi South 6.9 mph - N/A   Mist
6:39 AM 48.2 °F - 44.6 °F 87% 30.17 in 0.8 mi South 8.1 mph - N/A   Mist
6:50 AM 48.2 °F - 44.6 °F 87% 30.17 in 1.2 mi South 8.1 mph - 0.01 in   Overcast
6:53 AM 48.0 °F - 45.0 °F 89% 30.17 in 1.8 mi South 6.9 mph 16.1 mph 0.01 in   Overcast
7:00 AM 48.2 °F - 44.6 °F 87% 30.17 in 2.0 mi South 8.1 mph 16.1 mph N/A   Overcast
7:07 AM 48.2 °F - 44.6 °F 87% 30.17 in 1.2 mi South 8.1 mph - N/A   Overcast
7:28 AM 48.2 °F - 44.6 °F 87% 30.17 in 2.0 mi SSW 6.9 mph - N/A   Overcast
7:37 AM 48.2 °F - 44.6 °F 87% 30.17 in 5.0 mi South 6.9 mph - N/A   Overcast
7:53 AM 48.0 °F - 45.0 °F 89% 30.17 in 3.0 mi South 4.6 mph - N/A   Overcast
8:15 AM 48.2 °F - 44.6 °F 87% 30.17 in 2.5 mi South 6.9 mph - N/A   Overcast
8:42 AM 48.2 °F - 44.6 °F 87% 30.17 in 3.0 mi South 8.1 mph - N/A   Overcast
8:53 AM 48.9 °F - 45.0 °F 86% 30.18 in 3.0 mi SSW 6.9 mph - N/A   Overcast
9:20 AM 50.0 °F - 46.4 °F 87% 30.17 in 3.0 mi SSE 4.6 mph - N/A   Overcast
9:53 AM 50.0 °F - 46.9 °F 89% 30.18 in 4.0 mi South 4.6 mph - N/A   Overcast
10:00 AM 51.8 °F - 46.4 °F 82% 30.18 in 4.0 mi South 4.6 mph - N/A   Overcast
10:53 AM 51.1 °F - 46.9 °F 86% 30.19 in 4.0 mi South 8.1 mph - N/A   Overcast
11:06 AM 51.8 °F - 46.4 °F 82% 30.18 in 3.0 mi Variable 5.8 mph - N/A   Haze
11:37 AM 51.8 °F - 48.2 °F 88% 30.19 in 1.8 mi South 8.1 mph - N/A   Overcast
11:41 AM 51.8 °F - 48.2 °F 88% 30.19 in 0.8 mi South 11.5 mph 17.3 mph N/A   Overcast
11:53 AM 51.1 °F - 46.9 °F 86% 30.19 in 0.8 mi South 10.4 mph 18.4 mph N/A   Overcast
11:58 AM 51.8 °F - 46.4 °F 82% 30.19 in 1.5 mi South 6.9 mph 17.3 mph N/A   Overcast
12:04 PM 51.8 °F - 46.4 °F 82% 30.19 in 3.0 mi Variable 5.8 mph - N/A   Haze
12:44 PM 51.8 °F - 46.4 °F 82% 30.19 in 1.8 mi SSW 9.2 mph - N/A   Overcast
12:49 PM 51.8 °F - 46.4 °F 82% 30.19 in 0.8 mi SSW 9.2 mph - N/A   Overcast
12:53 PM 50.0 °F - 46.9 °F 89% 30.20 in 0.5 mi SSW 6.9 mph - N/A Fog Fog
1:11 PM 48.2 °F - 46.4 °F 93% 30.20 in 0.2 mi SSW 10.4 mph 19.6 mph 0.00 in Fog , Rain Light Rain
1:20 PM 50.0 °F - 46.4 °F 87% 30.20 in 0.5 mi SSW 6.9 mph 16.1 mph 0.00 in Fog Fog
1:53 PM 48.9 °F - 45.0 °F 86% 30.21 in 0.8 mi SSW 6.9 mph - 0.00 in   Overcast
2:10 PM 48.2 °F - 44.6 °F 87% 30.20 in 0.8 mi SSW 5.8 mph - N/A   Overcast
2:53 PM 48.9 °F - 45.0 °F 86% 30.19 in 0.5 mi South 5.8 mph - 0.04 in Fog , Rain Rain
3:53 PM 48.9 °F - 46.0 °F 90% 30.19 in 1.0 mi South 4.6 mph - 0.05 in Rain Light Rain
4:10 PM 48.2 °F - 44.6 °F 87% 30.19 in 0.5 mi South 8.1 mph - 0.01 in Fog , Rain Light Rain
4:23 PM 50.0 °F - 46.4 °F 87% 30.19 in 0.2 mi South 9.2 mph - 0.03 in Fog , Rain Light Rain
4:32 PM 50.0 °F - 46.4 °F 87% 30.18 in 0.5 mi South 5.8 mph - 0.03 in Fog , Rain Light Rain
4:53 PM 48.9 °F - 46.0 °F 90% 30.19 in 0.5 mi South 5.8 mph - 0.04 in Fog Fog
5:46 PM 48.2 °F - 46.4 °F 93% 30.18 in 1.0 mi South 4.6 mph - 0.05 in Rain Light Rain
5:53 PM 48.9 °F - 46.0 °F 90% 30.18 in 0.5 mi South 8.1 mph - 0.05 in Fog , Rain Light Rain
6:02 PM 48.2 °F - 46.4 °F 93% 30.17 in 0.2 mi South 6.9 mph - 0.00 in Fog , Rain Light Rain
6:31 PM 48.2 °F - 46.4 °F 93% 30.17 in 0.5 mi Variable 5.8 mph - 0.04 in Fog , Rain Rain
6:53 PM 48.9 °F - 46.0 °F 90% 30.17 in 0.5 mi South 5.8 mph - 0.07 in Fog , Rain Light Rain
7:13 PM 48.2 °F - 46.4 °F 93% 30.17 in 0.2 mi South 6.9 mph - 0.01 in Fog , Rain Light Rain
7:32 PM 48.2 °F - 46.4 °F 93% 30.16 in 0.5 mi South 4.6 mph - 0.01 in Fog Fog
7:39 PM 48.2 °F - 46.4 °F 93% 30.16 in 0.2 mi South 4.6 mph - 0.02 in Fog Fog
7:53 PM 48.9 °F - 46.0 °F 90% 30.16 in 0.2 mi Variable 3.5 mph - 0.02 in Fog , Rain Light Rain
8:06 PM 48.2 °F - 46.4 °F 93% 30.16 in 0.5 mi Variable 3.5 mph - 0.01 in Fog Fog
8:48 PM 48.2 °F - 46.4 °F 93% 30.15 in 1.5 mi Calm Calm - 0.05 in Rain Light Rain
8:53 PM 48.9 °F - 46.0 °F 90% 30.15 in 1.5 mi SSW 5.8 mph - 0.05 in Rain Light Rain
8:59 PM 48.2 °F - 46.4 °F 93% 30.15 in 0.8 mi SSW 3.5 mph - 0.00 in Rain Light Rain
9:19 PM 48.2 °F - 46.4 °F 93% 30.15 in 0.2 mi SSW 4.6 mph - 0.00 in Fog Fog
9:53 PM 48.9 °F - 46.0 °F 90% 30.15 in 0.2 mi SW 6.9 mph - 0.00 in Fog Fog
10:53 PM 48.0 °F - 46.0 °F 93% 30.16 in 0.2 mi SW 5.8 mph - N/A Fog Fog
11:21 PM 48.2 °F - 44.6 °F 87% 30.15 in 0.8 mi SW 3.5 mph - N/A   Mist
11:53 PM 48.0 °F - 45.0 °F 89% 30.15 in 0.5 mi WSW 4.6 mph - N/A Fog Fog